Location: New Frontier Mobile Home Park
(32.8448°N, 116.9675°W)
Time: 23:04:06
(UTC+00:00)

Cosmos 2369 Rocket - Pass Details

Date: 14 July 2020
Orbit: 830 x 851 km, 71.0° (Epoch: 05 August)

Event Time Altitude Azimuth Distance (km) Brightness Sun altitude
Rises 06:07:52 0° 352° (N) 3,380 6.3 -30.0°
Reaches altitude 10° 06:10:41 10° 4° (N) 2,445 5.3 -30.2°
Enters shadow 06:14:46 27° 51° (NE) 1,569 3.6 -30.6°
